{"data":{"norad_id":67195,"intl_designator":"2025-304D","name":"STARLINK-36291","alt_names":[],"object_type":"PAYLOAD","status":"ACTIVE","operator":null,"country":"US","launch_date":"2025-12-17","launch_site_code":"AFWTR","launch_vehicle":null,"mission":null,"orbit_class":"UNKNOWN","rcs_meters":null,"size_class":null,"mass_kg":null,"dimensions":null,"purposes":["comms"],"wikipedia_slug":null,"has_3d_model":false,"image_url":null,"decayed_at":null,"tle_current":{"epoch":"2026-09-20T15:44:41.745408Z","epoch_age_seconds":65590,"freshness":"FRESH","line1":"1 67195U 25304D   26263.65603872 -.00000540  00000+0 -37452-4 0  9993","line2":"2 67195  70.0004  43.0786 0003095 271.5506  88.5298 14.98322895 43088","mean_motion":14.98322895,"eccentricity":0.0003095,"inclination_deg":70.0004,"raan_deg":43.0786,"arg_perigee_deg":271.5506,"mean_anomaly_deg":88.5298,"bstar":-3.7452e-5,"rev_number":4308,"period_min":96.107454862058,"perigee_km":569.92677115765,"apogee_km":574.22895415764,"semimajor_km":6950.2148626576,"source":"CELESTRAK","updated_at":"2026-09-21T09:00:36.135709Z"}}}